Location: Newark
(23.3970°S, 47.6010°W)
Time: 14:48:53
(UTC+00:00)

deb Explorer IX - Pass Details

Date: 20 February 2020
Orbit: 547 x 1100 km, 38.8° (Epoch: 04 April)

Event Time Altitude Azimuth Distance (km) Brightness Sun altitude
Rises 05:41:40 0° 236° (WSW) 3,925 - -41.8°
Reaches altitude 10° 05:45:05 10° 223° (SW) 2,954 - -41.2°
Exits shadow 05:49:46 24° 184° (S) 2,060 ? -40.4°
Maximum altitude 05:50:52 25° 171° (S) 2,006 ? -40.2°
Drops below altitude 10° 05:56:18 10° 118° (ESE) 2,766 ? -39.3°
Sets 05:59:23 0° 104° (ESE) 3,627 ? -38.7°
